Location: Banios
(43.0451°N, 0.2335°E)
Time: 13:16:28
(UTC+00:00)

A-11 Canister half - Pass Details

Date: 17 May 2021
Orbit: 1513 x 1686 km, 47.2° (Epoch: 14 June)

Event Time Altitude Azimuth Distance (km) Brightness Sun altitude
Rises 11:50:06 0° 200° (SSW) 4,723 11.9 66.4°
Reaches altitude 10° 11:53:37 10° 190° (S) 3,719 11.6 66.4°
Maximum altitude 12:01:27 31° 133° (SE) 2,412 10.8 66.4°
Drops below altitude 10° 12:09:11 10° 75° (ENE) 3,675 11.0 66.2°
Sets 12:12:37 0° 66° (ENE) 4,659 11.4 66.1°
